GW4379 Weather Reports


time (UTC)temp
C
wind
direction
speed
KPH
gust
KPH
rain 1hr
cm
rain 24hr
cm
rain mn
cm
humidity
%
barometer
mb
20260509024549 15 0 0.0 4.8 0.00 0.00 0.00 78 1014.4
20260509023045 15 0 0.0 4.8 0.00 0.00 0.00 77 1014.6
20260509021549 15 0 0.0 3.2 0.00 0.00 0.00 77 1014.4
20260509020055 15 0 0.0 3.2 0.00 0.00 0.00 76 1014.7
20260509014554 15 0 0.0 4.8 0.00 0.00 0.00 75 1014.5
20260509013058 16 167 1.6 4.8 0.00 0.00 0.00 74 1014.4
20260509011554 16 0 0.0 4.8 0.00 0.00 0.00 71 1014.2
20260509010052 17 167 0.0 4.8 0.00 0.00 0.00 68 1014.1
20260509004558 17 0 0.0 4.8 0.00 0.00 0.00 67 1014.1
20260509003056 17 0 0.0 6.4 0.00 0.00 0.00 66 1014.1
20260509001548 17 194 3.2 6.4 0.00 0.00 0.00 63 1014.0
20260509000054 18 216 1.6 3.2 0.00 0.00 0.00 62 1013.9
20260508234556 18 197 1.6 4.8 0.00 0.00 0.00 61 1013.7
20260508233054 18 189 1.6 4.8 0.00 0.00 0.00 59 1013.6
20260508231552 18 218 1.6 4.8 0.00 0.00 0.00 58 1013.8
20260508230056 18 197 4.8 6.4 0.00 0.00 0.00 57 1013.7
20260508224649 19 226 1.6 6.4 0.00 0.00 0.00 57 1013.7
20260508223053 19 207 3.2 9.7 0.00 0.00 0.00 58 1013.9
20260508221548 19 181 4.8 9.7 0.00 0.00 0.00 56 1013.8
20260508220057 19 161 6.4 11.3 0.00 0.00 0.00 55 1013.7
20260508214553 20 142 4.8 11.3 0.00 0.00 0.00 54 1013.5
20260508213053 20 191 4.8 14.5 0.00 0.00 0.00 54 1013.7
20260508211554 20 196 4.8 16.1 0.00 0.00 0.00 53 1013.7
20260508210055 20 186 3.2 12.9 0.00 0.00 0.00 51 1013.5
20260508204552 20 158 4.8 9.7 0.00 0.00 0.00 52 1013.6
20260508203107 20 204 4.8 11.3 0.00 0.00 0.00 50 1013.7
20260508201600 20 209 3.2 17.7 0.00 0.00 0.00 51 1013.9
20260508200049 20 186 4.8 17.7 0.00 0.00 0.00 51 1014.2
20260508194552 20 279 3.2 11.3 0.00 0.00 0.00 52 1014.4
20260508193052 21 142 3.2 12.9 0.00 0.00 0.00 48 1014.7
20260508191552 21 183 11.3 19.3 0.00 0.00 0.00 51 1014.9
20260508190052 21 169 4.8 12.9 0.00 0.00 0.00 52 1015.1
20260508184553 20 273 3.2 11.3 0.00 0.00 0.00 47 1015.5
20260508183048 21 165 6.4 14.5 0.00 0.00 0.00 46 1015.5
20260508181558 20 283 1.6 9.7 0.00 0.00 0.00 51 1015.7
20260508180052 21 184 6.4 17.7 0.00 0.00 0.00 49 1015.9
20260508174556 21 183 4.8 9.7 0.00 0.00 0.00 50 1015.9
20260508173050 21 271 3.2 9.7 0.00 0.00 0.00 51 1016.2
20260508171553 21 39 1.6 9.7 0.00 0.00 0.00 48 1016.2
20260508170053 19 182 3.2 11.3 0.00 0.00 0.00 51 1016.8
20260508164556 19 257 3.2 11.3 0.00 0.00 0.00 53 1016.8
20260508163048 19 188 3.2 9.7 0.00 0.00 0.00 51 1017.2
20260508161559 19 218 1.6 8.0 0.00 0.00 0.00 51 1017.2
20260508160053 18 161 3.2 11.3 0.00 0.00 0.00 52 1017.4
20260508154608 19 215 1.6 9.7 0.00 0.00 0.00 50 1017.7
20260508153051 18 179 3.2 8.0 0.00 0.00 0.00 58 1017.9
20260508151552 18 164 1.6 4.8 0.00 0.00 0.00 56 1017.8
20260508150059 17 204 1.6 9.7 0.00 0.00 0.00 55 1017.9
20260508144548 17 189 1.6 6.4 0.00 0.00 0.00 60 1017.8
20260508143106 17 67 3.2 8.0 0.00 0.00 0.00 56 1017.8
20260508141549 17 90 3.2 9.7 0.00 0.00 0.00 56 1017.9
20260508134550 16 142 1.6 6.4 0.00 0.25 0.00 57 1018.2
20260508133059 17 44 1.6 6.4 0.00 0.25 0.00 58 1018.2
20260508131600 16 107 1.6 3.2 0.00 0.25 0.00 60 1018.0
20260508130054 15 0 0.0 4.8 0.00 0.25 0.00 68 1017.6
20260508124551 15 14 1.6 3.2 0.00 0.28 0.00 68 1017.6
20260508123053 13 19 0.0 1.6 0.00 0.28 0.00 74 1017.6
20260508121552 13 19 0.0 4.8 0.00 0.28 0.00 76 1017.3
20260508120052 12 63 0.0 3.2 0.00 0.28 0.00 85 1017.1
20260508114548 10 0 0.0 3.2 0.00 0.48 0.00 89 1017.1
20260508113049 9 238 0.0 3.2 0.00 0.48 0.00 90 1016.7
20260508111601 9 237 0.0 3.2 0.00 0.48 0.00 91 1016.3
20260508104549 8 228 0.0 3.2 0.00 0.74 0.00 92 1015.7
20260508103053 8 0 1.6 3.2 0.00 0.74 0.00 92 1015.7
20260508101550 8 0 0.0 3.2 0.00 0.74 0.00 92 1015.4
20260508100050 8 0 0.0 3.2 0.00 0.74 0.00 91 1015.1
20260508094550 8 228 0.0 3.2 0.00 0.81 0.00 91 1014.9
20260508093053 8 228 0.0 3.2 0.00 0.81 0.00 91 1014.9
20260508091601 9 228 0.0 3.2 0.00 0.81 0.00 91 1014.9
20260508090050 9 228 0.0 3.2 0.00 0.81 0.00 92 1014.5
20260508084559 9 228 0.0 3.2 0.00 1.07 0.00 92 1014.7
20260508083056 9 228 0.0 3.2 0.00 1.07 0.00 92 1014.7
20260508081549 9 0 0.0 3.2 0.00 1.07 0.00 91 1014.5
20260508080109 9 0 0.0 3.2 0.00 1.07 0.00 90 1014.5
20260508074558 10 228 0.0 3.2 0.00 1.60 0.00 90 1014.5
20260508073057 10 228 0.0 3.2 0.00 1.60 0.00 90 1014.4
20260508071548 10 0 0.0 3.2 0.00 1.60 0.00 91 1014.4
20260508070054 10 0 0.0 3.2 0.00 1.60 0.00 90 1014.3
20260508064558 10 0 0.0 3.2 0.00 2.01 0.00 89 1014.1
20260508063053 10 0 0.0 1.6 0.00 2.01 0.00 88 1014.0
20260508061553 10 0 0.0 0.0 0.00 2.01 0.00 87 1014.0
20260508060052 11 0 0.0 0.0 0.00 2.01 0.00 86 1014.0
20260508054550 11 0 0.0 3.2 0.00 2.79 0.00 85 1014.3
20260508053055 11 228 0.0 3.2 0.00 2.79 0.00 85 1014.3
20260508051603 11 0 0.0 3.2 0.00 2.79 0.00 84 1014.1
20260508050105 12 213 0.0 3.2 0.00 2.79 0.00 81 1014.2
20260508044555 12 250 0.0 3.2 0.00 3.05 0.00 79 1014.0
20260508043048 12 67 0.0 3.2 0.00 3.05 0.00 75 1013.8
20260508041558 13 67 0.0 3.2 0.00 3.05 0.00 76 1013.6
20260508040100 13 0 0.0 3.2 0.00 3.05 0.00 73 1013.3
20260508034551 14 0 0.0 3.2 0.00 3.05 3.05 69 1013.7
20260508033051 14 30 1.6 3.2 0.00 3.05 3.05 68 1013.7
20260508031552 14 360 1.6 3.2 0.00 3.05 3.05 67 1013.6
20260508030057 14 0 0.0 3.2 0.00 3.05 3.05 68 1013.4